Time,TemperatureF,DewpointF,PressureIn,WindDirection,WindDirectionDegrees,WindSpeedMPH,WindSpeedGustMPH,Humidity,HourlyPrecipIn,Conditions,Clouds,dailyrainin,SolarRadiationWatts/m^2,SoftwareType,DateUTC
2013-01-18 00:02:00,33.7,19.7,30.40,NNE,17,15.0,15.0,56,0.00,,---,0.00,0.00,VWS V14.01,2013-01-18 08:02:00,
2013-01-18 00:07:00,33.6,19.6,30.41,NNE,32,4.0,15.0,56,0.00,,---,0.00,0.00,VWS V14.01,2013-01-18 08:07:00,
2013-01-18 00:12:00,33.5,19.5,30.41,NE,40,10.0,15.0,56,0.00,,---,0.00,0.00,VWS V14.01,2013-01-18 08:12:00,
2013-01-18 00:17:00,33.4,19.4,30.41,NNE,32,9.0,15.0,56,0.00,,---,0.00,0.00,VWS V14.01,2013-01-18 08:17:00,
2013-01-18 00:22:00,33.3,19.7,30.41,NNE,13,2.0,15.0,57,0.00,,---,0.00,0.00,VWS V14.01,2013-01-18 08:22:00,
2013-01-18 00:27:00,33.2,19.6,30.41,NNE,25,10.0,15.0,57,0.00,,---,0.00,0.00,VWS V14.01,2013-01-18 08:27:00,
2013-01-18 00:32:00,33.1,19.5,30.41,North,11,2.0,9.0,57,0.00,,---,0.00,0.00,VWS V14.01,2013-01-18 08:32:00,
2013-01-18 00:37:00,33.1,19.5,30.41,North,5,2.0,10.0,57,0.00,,---,0.00,0.00,VWS V14.01,2013-01-18 08:37:00,
2013-01-18 00:42:00,33.1,19.5,30.41,North,360,3.0,10.0,57,0.00,,---,0.00,0.00,VWS V14.01,2013-01-18 08:42:00,
2013-01-18 00:47:00,33.1,19.5,30.40,NNE,20,2.0,10.0,57,0.00,,---,0.00,0.00,VWS V14.01,2013-01-18 08:47:00,
2013-01-18 00:52:00,33.0,19.4,30.40,NNW,339,7.0,10.0,57,0.00,,---,0.00,0.00,VWS V14.01,2013-01-18 08:52:00,
2013-01-18 00:57:00,33.0,19.4,30.40,NNW,348,5.0,10.0,57,0.00,,---,0.00,0.00,VWS V14.01,2013-01-18 08:57:00,
2013-01-18 01:02:00,33.0,19.4,30.40,North,11,2.0,14.0,57,0.00,,---,0.00,0.00,VWS V14.01,2013-01-18 09:02:00,
2013-01-18 01:07:00,33.0,19.4,30.40,NNE,13,7.0,14.0,57,0.00,,---,0.00,0.00,VWS V14.01,2013-01-18 09:07:00,
2013-01-18 01:12:00,33.0,19.9,30.40,NE,54,5.0,14.0,58,0.00,,---,0.00,0.00,VWS V14.01,2013-01-18 09:12:00,
2013-01-18 01:17:00,32.8,20.1,30.40,North,5,8.0,14.0,59,0.00,,---,0.00,0.00,VWS V14.01,2013-01-18 09:17:00,
2013-01-18 01:22:00,32.8,19.7,30.40,NNW,329,5.0,14.0,58,0.00,,---,0.00,0.00,VWS V14.01,2013-01-18 09:22:00,
2013-01-18 01:27:00,32.7,20.0,30.40,NNE,13,8.0,14.0,59,0.00,,---,0.00,0.00,VWS V14.01,2013-01-18 09:27:00,
2013-01-18 01:32:00,32.6,19.9,30.40,NNW,342,7.0,13.0,59,0.00,,---,0.00,0.00,VWS V14.01,2013-01-18 09:32:00,
2013-01-18 01:37:00,32.5,19.8,30.40,NE,42,8.0,13.0,59,0.00,,---,0.00,0.00,VWS V14.01,2013-01-18 09:37:00,
2013-01-18 01:42:00,32.5,19.8,30.40,NNE,19,10.0,15.0,59,0.00,,---,0.00,0.00,VWS V14.01,2013-01-18 09:42:00,
2013-01-18 01:47:00,32.8,19.7,30.39,North,5,9.0,16.0,58,0.00,,---,0.00,0.00,VWS V14.01,2013-01-18 09:47:00,
2013-01-18 01:52:00,32.9,19.8,30.39,North,5,7.0,16.0,58,0.00,,---,0.00,0.00,VWS V14.01,2013-01-18 09:52:00,
2013-01-18 01:57:00,32.8,19.7,30.39,North,355,8.0,17.0,58,0.00,,---,0.00,0.00,VWS V14.01,2013-01-18 09:57:00,
2013-01-18 02:02:00,32.9,19.8,30.39,North,360,5.0,14.0,58,0.00,,---,0.00,0.00,VWS V14.01,2013-01-18 10:02:00,
2013-01-18 02:07:00,32.9,19.8,30.39,NE,36,11.0,17.0,58,0.00,,---,0.00,0.00,VWS V14.01,2013-01-18 10:07:00,
2013-01-18 02:12:00,32.8,19.7,30.39,NE,36,11.0,17.0,58,0.00,,---,0.00,0.00,VWS V14.01,2013-01-18 10:12:00,
2013-01-18 02:17:00,32.8,19.7,30.39,NE,39,10.0,17.0,58,0.00,,---,0.00,0.00,VWS V14.01,2013-01-18 10:17:00,
2013-01-18 02:22:00,32.7,20.0,30.40,NE,46,14.0,17.0,59,0.00,,---,0.00,0.00,VWS V14.01,2013-01-18 10:22:00,
2013-01-18 02:27:00,32.6,19.5,30.39,NNW,348,9.0,17.0,58,0.00,,---,0.00,0.00,VWS V14.01,2013-01-18 10:27:00,
2013-01-18 02:32:00,32.6,19.9,30.39,NNW,342,13.0,19.0,59,0.00,,---,0.00,0.00,VWS V14.01,2013-01-18 10:32:00,
2013-01-18 02:37:00,32.6,19.9,30.39,NNE,12,8.0,19.0,59,0.00,,---,0.00,0.00,VWS V14.01,2013-01-18 10:37:00,
2013-01-18 02:42:00,32.5,19.8,30.39,NNE,17,8.0,19.0,59,0.00,,---,0.00,0.00,VWS V14.01,2013-01-18 10:42:00,
2013-01-18 02:47:00,32.6,19.9,30.39,NNE,18,11.0,21.0,59,0.00,,---,0.00,0.00,VWS V14.01,2013-01-18 10:47:00,
2013-01-18 02:52:00,32.6,19.9,30.39,NNE,17,7.0,21.0,59,0.00,,---,0.00,0.00,VWS V14.01,2013-01-18 10:52:00,
2013-01-18 02:57:00,32.6,19.9,30.39,NNE,17,8.0,21.0,59,0.00,,---,0.00,0.00,VWS V14.01,2013-01-18 10:57:00,
2013-01-18 03:02:00,32.6,19.9,30.39,North,360,11.0,17.0,59,0.00,,---,0.00,0.00,VWS V14.01,2013-01-18 11:02:00,
2013-01-18 03:07:00,32.7,20.0,30.39,NE,37,12.0,20.0,59,0.00,,---,0.00,0.00,VWS V14.01,2013-01-18 11:07:00,
2013-01-18 03:12:00,32.7,20.0,30.39,North,11,8.0,20.0,59,0.00,,---,0.00,0.00,VWS V14.01,2013-01-18 11:12:00,
2013-01-18 03:17:00,32.5,20.2,30.39,NNE,18,6.0,20.0,60,0.00,,---,0.00,0.00,VWS V14.01,2013-01-18 11:17:00,
2013-01-18 03:22:00,32.3,20.0,30.39,North,355,6.0,20.0,60,0.00,,---,0.00,0.00,VWS V14.01,2013-01-18 11:22:00,
2013-01-18 03:27:00,32.2,19.9,30.39,NE,34,8.0,20.0,60,0.00,,---,0.00,0.00,VWS V14.01,2013-01-18 11:27:00,
2013-01-18 03:32:00,32.0,20.1,30.39,NE,35,6.0,12.0,61,0.00,,---,0.00,0.00,VWS V14.01,2013-01-18 11:32:00,
2013-01-18 03:37:00,31.7,19.8,30.39,NNE,14,7.0,15.0,61,0.00,,---,0.00,0.00,VWS V14.01,2013-01-18 11:37:00,
2013-01-18 03:42:00,31.6,20.1,30.39,North,5,12.0,15.0,62,0.00,,---,0.00,0.00,VWS V14.01,2013-01-18 11:42:00,
2013-01-18 03:46:00,31.4,19.9,30.39,North,5,8.0,17.0,62,0.00,,---,0.00,0.00,VWS V14.01,2013-01-18 11:46:00,
2013-01-18 03:51:00,31.3,20.2,30.39,NE,44,7.0,17.0,63,0.00,,---,0.00,0.00,VWS V14.01,2013-01-18 11:51:00,
2013-01-18 03:56:00,31.1,20.0,30.39,North,10,6.0,17.0,63,0.00,,---,0.00,0.00,VWS V14.01,2013-01-18 11:56:00,
2013-01-18 04:01:00,31.0,19.9,30.39,NNE,17,6.0,15.0,63,0.00,,---,0.00,0.00,VWS V14.01,2013-01-18 12:01:00,
2013-01-18 04:06:00,30.8,19.7,30.39,North,11,4.0,15.0,63,0.00,,---,0.00,0.00,VWS V14.01,2013-01-18 12:06:00,
2013-01-18 04:11:00,30.6,19.5,30.39,NE,34,8.0,15.0,63,0.00,,---,0.00,0.00,VWS V14.01,2013-01-18 12:11:00,
2013-01-18 04:16:00,30.5,19.4,30.39,ENE,57,5.0,15.0,63,0.00,,---,0.00,0.00,VWS V14.01,2013-01-18 12:16:00,
2013-01-18 04:21:00,30.4,19.7,30.39,NE,36,8.0,15.0,64,0.00,,---,0.00,0.00,VWS V14.01,2013-01-18 12:21:00,
2013-01-18 04:26:00,30.4,19.3,30.39,NE,48,7.0,15.0,63,0.00,,---,0.00,0.00,VWS V14.01,2013-01-18 12:26:00,
2013-01-18 04:31:00,30.3,19.2,30.39,NNE,31,10.0,11.0,63,0.00,,---,0.00,0.00,VWS V14.01,2013-01-18 12:31:00,
2013-01-18 04:36:00,30.2,19.5,30.39,NE,38,7.0,14.0,64,0.00,,---,0.00,0.00,VWS V14.01,2013-01-18 12:36:00,
2013-01-18 04:41:00,30.2,19.5,30.38,NNE,32,9.0,19.0,64,0.00,,---,0.00,0.00,VWS V14.01,2013-01-18 12:41:00,
2013-01-18 04:46:00,30.2,19.5,30.38,NNW,333,8.0,19.0,64,0.00,,---,0.00,0.00,VWS V14.01,2013-01-18 12:46:00,
2013-01-18 04:51:00,30.3,19.2,30.39,North,5,10.0,19.0,63,0.00,,---,0.00,0.00,VWS V14.01,2013-01-18 12:51:00,
2013-01-18 04:56:00,30.4,19.3,30.38,North,5,8.0,19.0,63,0.00,,---,0.00,0.00,VWS V14.01,2013-01-18 12:56:00,
2013-01-18 05:02:00,30.4,19.3,30.38,NW,310,6.0,6.0,63,0.00,,---,0.00,0.00,VWS V14.01,2013-01-18 13:02:00,
2013-01-18 05:07:00,30.3,19.2,30.38,North,360,7.0,12.0,63,0.00,,---,0.00,0.00,VWS V14.01,2013-01-18 13:07:00,
2013-01-18 05:12:00,30.3,19.2,30.38,North,11,8.0,13.0,63,0.00,,---,0.00,0.00,VWS V14.01,2013-01-18 13:12:00,
2013-01-18 05:17:00,30.2,19.1,30.38,NNW,342,5.0,14.0,63,0.00,,---,0.00,0.00,VWS V14.01,2013-01-18 13:17:00,
2013-01-18 05:22:00,30.2,19.1,30.38,NNW,348,15.0,15.0,63,0.00,,---,0.00,0.00,VWS V14.01,2013-01-18 13:22:00,
2013-01-18 05:27:00,30.2,19.1,30.38,North,9,10.0,15.0,63,0.00,,---,0.00,0.00,VWS V14.01,2013-01-18 13:27:00,
2013-01-18 05:32:00,30.1,19.0,30.38,NNE,23,8.0,14.0,63,0.00,,---,0.00,0.00,VWS V14.01,2013-01-18 13:32:00,
2013-01-18 05:37:00,30.1,19.4,30.38,NNE,31,11.0,16.0,64,0.00,,---,0.00,0.00,VWS V14.01,2013-01-18 13:37:00,
2013-01-18 05:42:00,30.0,19.3,30.37,NNE,17,6.0,16.0,64,0.00,,---,0.00,0.00,VWS V14.01,2013-01-18 13:42:00,
2013-01-18 05:47:00,30.1,19.4,30.37,North,5,10.0,16.0,64,0.00,,---,0.00,0.00,VWS V14.01,2013-01-18 13:47:00,
2013-01-18 05:52:00,30.2,19.5,30.37,NE,42,17.0,17.0,64,0.00,,---,0.00,0.00,VWS V14.01,2013-01-18 13:52:00,
2013-01-18 05:57:00,30.2,19.5,30.37,North,360,8.0,18.0,64,0.00,,---,0.00,0.00,VWS V14.01,2013-01-18 13:57:00,
2013-01-18 06:02:00,30.3,19.6,30.37,NNE,22,10.0,15.0,64,0.00,,---,0.00,0.00,VWS V14.01,2013-01-18 14:02:00,
2013-01-18 06:07:00,30.3,19.2,30.37,North,350,11.0,15.0,63,0.00,,---,0.00,0.00,VWS V14.01,2013-01-18 14:07:00,
2013-01-18 06:12:00,30.0,19.0,30.37,North,10,10.0,16.0,63,0.00,,---,0.00,0.00,VWS V14.01,2013-01-18 14:12:00,
2013-01-18 06:17:00,30.0,19.0,30.37,NNE,28,14.0,16.0,63,0.00,,---,0.00,0.00,VWS V14.01,2013-01-18 14:17:00,
2013-01-18 06:22:00,30.1,19.0,30.37,NE,49,9.0,17.0,63,0.00,,---,0.00,0.00,VWS V14.01,2013-01-18 14:22:00,
2013-01-18 06:27:00,30.0,19.0,30.37,North,5,6.0,17.0,63,0.00,,---,0.00,0.00,VWS V14.01,2013-01-18 14:27:00,
2013-01-18 06:32:00,29.9,18.9,30.37,NNE,28,9.0,15.0,63,0.00,,---,0.00,0.00,VWS V14.01,2013-01-18 14:32:00,
2013-01-18 06:37:00,29.8,18.8,30.37,NNE,19,16.0,16.0,63,0.00,,---,0.00,0.00,VWS V14.01,2013-01-18 14:37:00,
2013-01-18 06:42:00,29.9,18.9,30.37,North,355,9.0,16.0,63,0.00,,---,0.00,0.00,VWS V14.01,2013-01-18 14:42:00,
2013-01-18 06:47:00,30.0,19.0,30.37,NNE,21,6.0,17.0,63,0.00,,---,0.00,0.00,VWS V14.01,2013-01-18 14:47:00,
2013-01-18 06:52:00,30.1,18.7,30.37,NNE,15,14.0,17.0,62,0.00,,---,0.00,0.00,VWS V14.01,2013-01-18 14:52:00,
2013-01-18 06:57:00,30.1,18.7,30.36,NE,44,8.0,17.0,62,0.00,,---,0.00,0.00,VWS V14.01,2013-01-18 14:57:00,
2013-01-18 07:02:00,30.1,18.7,30.36,NNW,327,5.0,12.0,62,0.00,,---,0.00,0.00,VWS V14.01,2013-01-18 15:02:00,
2013-01-18 07:07:00,30.1,18.7,30.37,NNW,346,5.0,16.0,62,0.00,,---,0.00,0.00,VWS V14.01,2013-01-18 15:07:00,
2013-01-18 07:12:00,30.2,18.8,30.36,NW,313,7.0,17.0,62,0.00,,---,0.00,0.00,VWS V14.01,2013-01-18 15:12:00,
2013-01-18 07:17:00,30.5,19.0,30.36,NNE,22,6.0,17.0,62,0.00,,---,0.00,0.00,VWS V14.01,2013-01-18 15:17:00,
2013-01-18 07:22:00,30.5,19.0,30.36,NNW,341,8.0,17.0,62,0.00,,---,0.00,0.00,VWS V14.01,2013-01-18 15:22:00,
2013-01-18 07:27:00,30.5,18.7,30.36,NNW,345,10.0,18.0,61,0.00,,---,0.00,0.00,VWS V14.01,2013-01-18 15:27:00,
2013-01-18 07:32:00,30.3,18.9,30.37,North,9,7.0,17.0,62,0.00,,---,0.00,0.00,VWS V14.01,2013-01-18 15:32:00,
2013-01-18 07:37:00,30.1,18.7,30.37,NNW,336,15.0,17.0,62,0.00,,---,0.00,5.00,VWS V14.01,2013-01-18 15:37:00,
2013-01-18 07:42:00,30.1,18.7,30.37,NNE,22,15.0,18.0,62,0.00,,---,0.00,7.00,VWS V14.01,2013-01-18 15:42:00,
2013-01-18 07:47:00,30.0,19.0,30.37,NNW,331,8.0,19.0,63,0.00,,---,0.00,11.00,VWS V14.01,2013-01-18 15:47:00,
2013-01-18 07:52:00,29.9,18.9,30.37,North,5,15.0,19.0,63,0.00,,---,0.00,12.00,VWS V14.01,2013-01-18 15:52:00,
2013-01-18 07:57:00,29.7,18.7,30.37,North,9,9.0,19.0,63,0.00,,---,0.00,14.00,VWS V14.01,2013-01-18 15:57:00,
2013-01-18 08:02:00,29.6,18.9,30.37,NNE,17,7.0,18.0,64,0.00,,---,0.00,16.00,VWS V14.01,2013-01-18 16:02:00,
2013-01-18 08:07:00,29.4,18.7,30.37,North,5,10.0,18.0,64,0.00,,---,0.00,18.00,VWS V14.01,2013-01-18 16:07:00,
2013-01-18 08:12:00,29.4,19.1,30.37,North,355,4.0,18.0,65,0.00,,---,0.00,21.00,VWS V14.01,2013-01-18 16:12:00,
2013-01-18 08:17:00,29.3,19.0,30.37,NNW,330,15.0,18.0,65,0.00,,---,0.00,23.00,VWS V14.01,2013-01-18 16:17:00,
2013-01-18 08:22:00,29.3,19.0,30.37,NNW,347,9.0,18.0,65,0.00,,---,0.00,25.00,VWS V14.01,2013-01-18 16:22:00,
2013-01-18 08:27:00,29.4,19.1,30.38,NNW,346,6.0,18.0,65,0.00,,---,0.00,26.00,VWS V14.01,2013-01-18 16:27:00,
2013-01-18 08:32:00,29.5,19.2,30.38,North,5,8.0,15.0,65,0.00,,---,0.00,28.00,VWS V14.01,2013-01-18 16:32:00,
2013-01-18 08:37:00,29.6,19.3,30.38,NNE,17,7.0,19.0,65,0.00,,---,0.00,30.00,VWS V14.01,2013-01-18 16:37:00,
2013-01-18 08:42:00,29.6,19.3,30.39,NE,36,10.0,19.0,65,0.00,,---,0.00,33.00,VWS V14.01,2013-01-18 16:42:00,
2013-01-18 08:47:00,29.7,19.4,30.39,North,360,11.0,19.0,65,0.00,,---,0.00,35.00,VWS V14.01,2013-01-18 16:47:00,
2013-01-18 08:52:00,29.7,19.4,30.39,NNE,21,5.0,19.0,65,0.00,,---,0.00,37.00,VWS V14.01,2013-01-18 16:52:00,
2013-01-18 08:57:00,29.8,19.5,30.39,North,5,8.0,19.0,65,0.00,,---,0.00,47.00,VWS V14.01,2013-01-18 16:57:00,
2013-01-18 09:02:00,29.9,19.6,30.39,NNE,23,14.0,14.0,65,0.00,,---,0.00,46.00,VWS V14.01,2013-01-18 17:02:00,
2013-01-18 09:07:00,30.2,19.5,30.39,North,5,13.0,17.0,64,0.00,,---,0.00,46.00,VWS V14.01,2013-01-18 17:07:00,
2013-01-18 09:12:00,30.5,19.8,30.39,NNW,331,11.0,17.0,64,0.00,,---,0.00,51.00,VWS V14.01,2013-01-18 17:12:00,
2013-01-18 09:17:00,30.8,19.7,30.39,ENE,74,11.0,17.0,63,0.00,,---,0.00,62.00,VWS V14.01,2013-01-18 17:17:00,
2013-01-18 09:22:00,31.1,20.0,30.39,NNW,339,8.0,17.0,63,0.00,,---,0.00,63.00,VWS V14.01,2013-01-18 17:22:00,
2013-01-18 09:27:00,31.6,20.1,30.39,NNW,348,11.0,19.0,62,0.00,,---,0.00,70.00,VWS V14.01,2013-01-18 17:27:00,
2013-01-18 09:32:00,32.3,20.4,30.39,North,360,8.0,15.0,61,0.00,,---,0.00,77.00,VWS V14.01,2013-01-18 17:32:00,
2013-01-18 09:37:00,32.6,20.3,30.40,NNE,26,8.0,18.0,60,0.00,,---,0.00,84.00,VWS V14.01,2013-01-18 17:37:00,
2013-01-18 09:42:00,33.0,20.2,30.40,NNE,21,6.0,18.0,59,0.00,,---,0.00,83.00,VWS V14.01,2013-01-18 17:42:00,
2013-01-18 09:47:00,33.2,20.4,30.40,NNW,331,13.0,18.0,59,0.00,,---,0.00,88.00,VWS V14.01,2013-01-18 17:47:00,
2013-01-18 09:52:00,33.4,20.2,30.40,North,360,9.0,18.0,58,0.00,,---,0.00,144.00,VWS V14.01,2013-01-18 17:52:00,
2013-01-18 09:57:00,33.6,20.4,30.40,NE,34,4.0,18.0,58,0.00,,---,0.00,128.00,VWS V14.01,2013-01-18 17:57:00,
2013-01-18 10:02:00,33.9,20.3,30.40,North,9,4.0,11.0,57,0.00,,---,0.00,111.00,VWS V14.01,2013-01-18 18:02:00,
2013-01-18 10:07:00,34.1,20.5,30.40,North,350,7.0,15.0,57,0.00,,---,0.00,253.00,VWS V14.01,2013-01-18 18:07:00,
2013-01-18 10:12:00,34.3,20.7,30.40,NE,34,5.0,15.0,57,0.00,,---,0.00,339.00,VWS V14.01,2013-01-18 18:12:00,
2013-01-18 10:17:00,34.8,20.7,30.40,NE,54,5.0,15.0,56,0.00,,---,0.00,304.00,VWS V14.01,2013-01-18 18:17:00,
2013-01-18 10:22:00,35.2,21.1,30.40,NE,49,5.0,15.0,56,0.00,,---,0.00,301.00,VWS V14.01,2013-01-18 18:22:00,
2013-01-18 10:27:00,35.5,21.0,30.40,North,5,7.0,15.0,55,0.00,,---,0.00,292.00,VWS V14.01,2013-01-18 18:27:00,
2013-01-18 10:32:00,35.9,21.3,30.40,NNE,15,7.0,12.0,55,0.00,,---,0.00,406.00,VWS V14.01,2013-01-18 18:32:00,
2013-01-18 10:37:00,36.4,20.9,30.40,NNE,17,6.0,17.0,53,0.00,,---,0.00,418.00,VWS V14.01,2013-01-18 18:37:00,
2013-01-18 10:42:00,37.2,21.2,30.40,NE,34,2.0,17.0,52,0.00,,---,0.00,397.00,VWS V14.01,2013-01-18 18:42:00,
2013-01-18 10:47:00,37.9,20.9,30.40,ENE,74,1.0,17.0,50,0.00,,---,0.00,359.00,VWS V14.01,2013-01-18 18:47:00,
2013-01-18 10:52:00,38.6,21.1,30.41,NNE,12,0.0,17.0,49,0.00,,---,0.00,422.00,VWS V14.01,2013-01-18 18:52:00,
2013-01-18 10:57:00,39.1,21.1,30.41,NNW,347,2.0,17.0,48,0.00,,---,0.00,431.00,VWS V14.01,2013-01-18 18:57:00,
2013-01-18 11:02:00,39.7,20.6,30.41,NE,54,0.0,3.0,46,0.00,,---,0.00,339.00,VWS V14.01,2013-01-18 19:02:00,
2013-01-18 11:07:00,40.0,21.4,30.41,NNE,15,3.0,8.0,47,0.00,,---,0.00,327.00,VWS V14.01,2013-01-18 19:07:00,
2013-01-18 11:12:00,40.1,21.0,30.40,NNE,28,4.0,8.0,46,0.00,,---,0.00,350.00,VWS V14.01,2013-01-18 19:12:00,
2013-01-18 11:17:00,40.2,21.1,30.40,NE,40,5.0,10.0,46,0.00,,---,0.00,380.00,VWS V14.01,2013-01-18 19:17:00,
2013-01-18 11:22:00,40.4,21.3,30.39,NE,45,3.0,16.0,46,0.00,,---,0.00,436.00,VWS V14.01,2013-01-18 19:22:00,
2013-01-18 11:27:00,40.7,21.5,30.39,NNE,26,5.0,16.0,46,0.00,,---,0.00,388.00,VWS V14.01,2013-01-18 19:27:00,
2013-01-18 11:32:00,41.2,22.0,30.39,North,5,2.0,9.0,46,0.00,,---,0.00,438.00,VWS V14.01,2013-01-18 19:32:00,
2013-01-18 11:37:00,41.7,21.9,30.39,East,86,3.0,9.0,45,0.00,,---,0.00,343.00,VWS V14.01,2013-01-18 19:37:00,
2013-01-18 11:42:00,42.3,22.0,30.39,NNW,330,0.0,9.0,44,0.00,,---,0.00,355.00,VWS V14.01,2013-01-18 19:42:00,
2013-01-18 11:47:00,42.7,21.8,30.39,North,5,3.0,9.0,43,0.00,,---,0.00,316.00,VWS V14.01,2013-01-18 19:47:00,
2013-01-18 11:52:00,43.1,22.1,30.39,NE,53,0.0,9.0,43,0.00,,---,0.00,257.00,VWS V14.01,2013-01-18 19:52:00,
2013-01-18 11:57:00,43.5,22.0,30.39,NE,46,1.0,9.0,42,0.00,,---,0.00,86.00,VWS V14.01,2013-01-18 19:57:00,
2013-01-18 12:02:00,43.9,22.3,30.39,WNW,295,2.0,6.0,42,0.00,,---,0.00,62.00,VWS V14.01,2013-01-18 20:02:00,
2013-01-18 12:07:00,44.2,22.6,30.38,ENE,69,1.0,6.0,42,0.00,,---,0.00,60.00,VWS V14.01,2013-01-18 20:07:00,
2013-01-18 12:12:00,44.6,21.8,30.38,ENE,59,3.0,8.0,40,0.00,,---,0.00,93.00,VWS V14.01,2013-01-18 20:12:00,
2013-01-18 12:17:00,45.0,22.1,30.38,NNE,17,3.0,8.0,40,0.00,,---,0.00,62.00,VWS V14.01,2013-01-18 20:17:00,
2013-01-18 12:22:00,45.7,22.2,30.38,NE,50,3.0,8.0,39,0.00,,---,0.00,63.00,VWS V14.01,2013-01-18 20:22:00,
2013-01-18 12:27:00,46.1,22.5,30.38,NNE,22,2.0,8.0,39,0.00,,---,0.00,77.00,VWS V14.01,2013-01-18 20:27:00,
2013-01-18 12:32:00,46.7,23.1,30.37,ENE,68,4.0,5.0,39,0.00,,---,0.00,65.00,VWS V14.01,2013-01-18 20:32:00,
2013-01-18 12:37:00,47.3,22.4,30.37,WSW,256,0.0,8.0,37,0.00,,---,0.00,63.00,VWS V14.01,2013-01-18 20:37:00,
2013-01-18 12:42:00,47.7,22.1,30.37,NNE,14,3.0,8.0,36,0.00,,---,0.00,63.00,VWS V14.01,2013-01-18 20:42:00,
2013-01-18 12:47:00,48.1,22.4,30.37,ENE,68,0.0,8.0,36,0.00,,---,0.00,81.00,VWS V14.01,2013-01-18 20:47:00,
2013-01-18 12:52:00,48.7,22.3,30.37,NE,44,1.0,8.0,35,0.00,,---,0.00,197.00,VWS V14.01,2013-01-18 20:52:00,
2013-01-18 12:57:00,49.2,22.7,30.37,NE,38,4.0,8.0,35,0.00,,---,0.00,264.00,VWS V14.01,2013-01-18 20:57:00,
2013-01-18 13:02:00,49.7,22.5,30.37,ENE,58,1.0,4.0,34,0.00,,---,0.00,396.00,VWS V14.01,2013-01-18 21:02:00,
2013-01-18 13:07:00,50.2,21.5,30.37,NNE,22,1.0,6.0,32,0.00,,---,0.00,134.00,VWS V14.01,2013-01-18 21:07:00,
2013-01-18 13:12:00,50.8,22.8,30.37,ENE,57,1.0,6.0,33,0.00,,---,0.00,114.00,VWS V14.01,2013-01-18 21:12:00,
2013-01-18 13:17:00,51.3,22.5,30.36,NE,36,0.0,6.0,32,0.00,,---,0.00,178.00,VWS V14.01,2013-01-18 21:17:00,
2013-01-18 13:22:00,51.7,22.1,30.36,NE,54,1.0,6.0,31,0.00,,---,0.00,432.00,VWS V14.01,2013-01-18 21:22:00,
2013-01-18 13:27:00,52.2,22.5,30.36,North,349,2.0,6.0,31,0.00,,---,0.00,450.00,VWS V14.01,2013-01-18 21:27:00,
2013-01-18 13:32:00,52.6,22.1,30.36,East,101,0.0,4.0,30,0.00,,---,0.00,441.00,VWS V14.01,2013-01-18 21:32:00,
2013-01-18 13:37:00,52.7,22.2,30.36,NW,309,0.0,5.0,30,0.00,,---,0.00,429.00,VWS V14.01,2013-01-18 21:37:00,
2013-01-18 13:42:00,53.0,22.4,30.36,ENE,60,4.0,5.0,30,0.00,,---,0.00,436.00,VWS V14.01,2013-01-18 21:42:00,
2013-01-18 13:47:00,53.4,22.8,30.36,NE,38,4.0,5.0,30,0.00,,---,0.00,425.00,VWS V14.01,2013-01-18 21:47:00,
2013-01-18 13:51:00,53.8,23.1,30.36,ENE,61,1.0,5.0,30,0.00,,---,0.00,459.00,VWS V14.01,2013-01-18 21:51:00,
2013-01-18 13:56:00,54.2,22.6,30.36,NNE,24,2.0,7.0,29,0.00,,---,0.00,411.00,VWS V14.01,2013-01-18 21:56:00,
2013-01-18 14:01:00,54.3,21.9,30.36,NE,50,3.0,5.0,28,0.00,,---,0.00,227.00,VWS V14.01,2013-01-18 22:01:00,
2013-01-18 14:06:00,54.2,21.8,30.36,NE,48,2.0,5.0,28,0.00,,---,0.00,278.00,VWS V14.01,2013-01-18 22:06:00,
2013-01-18 14:11:00,54.2,21.8,30.36,East,79,1.0,5.0,28,0.00,,---,0.00,438.00,VWS V14.01,2013-01-18 22:11:00,
2013-01-18 14:16:00,54.4,22.0,30.36,NE,46,2.0,6.0,28,0.00,,---,0.00,432.00,VWS V14.01,2013-01-18 22:16:00,
2013-01-18 14:21:00,54.6,22.2,30.36,NE,56,2.0,6.0,28,0.00,,---,0.00,441.00,VWS V14.01,2013-01-18 22:21:00,
2013-01-18 14:26:00,55.1,22.6,30.36,NNW,329,0.0,6.0,28,0.00,,---,0.00,438.00,VWS V14.01,2013-01-18 22:26:00,
2013-01-18 14:31:00,55.3,22.8,30.36,SW,216,2.0,3.0,28,0.00,,---,0.00,425.00,VWS V14.01,2013-01-18 22:31:00,
2013-01-18 14:36:00,55.4,22.9,30.36,SSE,153,0.0,3.0,28,0.00,,---,0.00,408.00,VWS V14.01,2013-01-18 22:36:00,
2013-01-18 14:41:00,55.4,24.5,30.36,SE,143,2.0,3.0,30,0.00,,---,0.00,403.00,VWS V14.01,2013-01-18 22:41:00,
2013-01-18 14:46:00,55.3,24.4,30.36,SW,221,2.0,4.0,30,0.00,,---,0.00,366.00,VWS V14.01,2013-01-18 22:46:00,
2013-01-18 14:51:00,55.0,24.9,30.36,SSE,150,2.0,5.0,31,0.00,,---,0.00,360.00,VWS V14.01,2013-01-18 22:51:00,
2013-01-18 14:56:00,55.0,25.7,30.36,South,174,2.0,5.0,32,0.00,,---,0.00,339.00,VWS V14.01,2013-01-18 22:56:00,
2013-01-18 15:01:00,54.9,25.6,30.36,South,169,0.0,3.0,32,0.00,,---,0.00,325.00,VWS V14.01,2013-01-18 23:01:00,
2013-01-18 15:06:00,54.6,25.4,30.36,SSW,208,0.0,3.0,32,0.00,,---,0.00,297.00,VWS V14.01,2013-01-18 23:06:00,
2013-01-18 15:11:00,54.2,25.0,30.36,SW,228,0.0,3.0,32,0.00,,---,0.00,292.00,VWS V14.01,2013-01-18 23:11:00,
2013-01-18 15:16:00,53.9,25.5,30.36,SSW,211,0.0,3.0,33,0.00,,---,0.00,239.00,VWS V14.01,2013-01-18 23:16:00,
2013-01-18 15:21:00,53.6,25.2,30.36,SSE,165,0.0,3.0,33,0.00,,---,0.00,255.00,VWS V14.01,2013-01-18 23:21:00,
2013-01-18 15:26:00,53.3,25.0,30.36,SSW,196,0.0,4.0,33,0.00,,---,0.00,229.00,VWS V14.01,2013-01-18 23:26:00,
2013-01-18 15:31:00,53.2,25.6,30.36,South,188,0.0,2.0,34,0.00,,---,0.00,211.00,VWS V14.01,2013-01-18 23:31:00,
2013-01-18 15:36:00,52.8,25.2,30.36,SW,223,0.0,3.0,34,0.00,,---,0.00,158.00,VWS V14.01,2013-01-18 23:36:00,
2013-01-18 15:41:00,52.5,25.0,30.37,SW,236,1.0,3.0,34,0.00,,---,0.00,165.00,VWS V14.01,2013-01-18 23:41:00,
2013-01-18 15:46:00,52.0,25.2,30.36,SW,227,0.0,3.0,35,0.00,,---,0.00,142.00,VWS V14.01,2013-01-18 23:46:00,
2013-01-18 15:51:00,51.7,25.6,30.37,South,189,0.0,3.0,36,0.00,,---,0.00,137.00,VWS V14.01,2013-01-18 23:51:00,
2013-01-18 15:56:00,51.5,24.8,30.37,SSW,207,0.0,3.0,35,0.00,,---,0.00,121.00,VWS V14.01,2013-01-18 23:56:00,
2013-01-18 16:01:00,51.2,25.2,30.37,SW,221,0.0,1.0,36,0.00,,---,0.00,95.00,VWS V14.01,2013-01-19 00:01:00,
2013-01-18 16:06:00,50.7,25.4,30.37,WSW,248,2.0,4.0,37,0.00,,---,0.00,97.00,VWS V14.01,2013-01-19 00:06:00,
2013-01-18 16:11:00,50.4,25.8,30.36,WSW,243,0.0,4.0,38,0.00,,---,0.00,81.00,VWS V14.01,2013-01-19 00:11:00,
2013-01-18 16:16:00,50.2,25.6,30.36,SSE,150,1.0,4.0,38,0.00,,---,0.00,70.00,VWS V14.01,2013-01-19 00:16:00,
2013-01-18 16:21:00,50.1,25.5,30.36,SSE,165,0.0,4.0,38,0.00,,---,0.00,56.00,VWS V14.01,2013-01-19 00:21:00,
2013-01-18 16:26:00,49.9,25.3,30.36,SSE,165,0.0,4.0,38,0.00,,---,0.00,42.00,VWS V14.01,2013-01-19 00:26:00,
2013-01-18 16:31:00,49.5,25.6,30.36,SSE,165,0.0,0.0,39,0.00,,---,0.00,32.00,VWS V14.01,2013-01-19 00:31:00,
2013-01-18 16:36:00,48.8,26.7,30.36,SSE,165,0.0,0.0,42,0.00,,---,0.00,26.00,VWS V14.01,2013-01-19 00:36:00,
2013-01-18 16:41:00,48.1,26.1,30.36,SSE,157,0.0,0.0,42,0.00,,---,0.00,21.00,VWS V14.01,2013-01-19 00:41:00,
2013-01-18 16:46:00,47.2,26.4,30.36,SSE,157,0.0,0.0,44,0.00,,---,0.00,14.00,VWS V14.01,2013-01-19 00:46:00,
2013-01-18 16:51:00,45.9,26.3,30.37,SSE,157,0.0,0.0,46,0.00,,---,0.00,9.00,VWS V14.01,2013-01-19 00:51:00,
2013-01-18 16:56:00,44.7,25.7,30.37,SSW,202,0.0,0.0,47,0.00,,---,0.00,7.00,VWS V14.01,2013-01-19 00:56:00,
2013-01-18 17:01:00,43.4,25.5,30.37,SW,232,1.0,1.0,49,0.00,,---,0.00,5.00,VWS V14.01,2013-01-19 01:01:00,
2013-01-18 17:06:00,42.5,26.1,30.37,SW,232,0.0,2.0,52,0.00,,---,0.00,0.00,VWS V14.01,2013-01-19 01:06:00,
2013-01-18 17:11:00,41.7,25.9,30.37,SW,232,0.0,2.0,53,0.00,,---,0.00,0.00,VWS V14.01,2013-01-19 01:11:00,
2013-01-18 17:16:00,41.1,25.7,30.37,WSW,242,0.0,2.0,54,0.00,,---,0.00,0.00,VWS V14.01,2013-01-19 01:16:00,
2013-01-18 17:21:00,40.6,26.1,30.37,WSW,252,2.0,2.0,56,0.00,,---,0.00,0.00,VWS V14.01,2013-01-19 01:21:00,
2013-01-18 17:27:00,40.1,26.1,30.37,West,277,1.0,2.0,57,0.00,,---,0.00,0.00,VWS V14.01,2013-01-19 01:27:00,
2013-01-18 17:32:00,39.8,25.8,30.37,WNW,282,1.0,2.0,57,0.00,,---,0.00,0.00,VWS V14.01,2013-01-19 01:32:00,
2013-01-18 17:37:00,39.6,26.1,30.37,WNW,282,1.0,2.0,58,0.00,,---,0.00,0.00,VWS V14.01,2013-01-19 01:37:00,
2013-01-18 17:42:00,39.5,26.4,30.37,WNW,284,1.0,2.0,59,0.00,,---,0.00,0.00,VWS V14.01,2013-01-19 01:42:00,
2013-01-18 17:47:00,39.2,26.1,30.37,WNW,284,0.0,2.0,59,0.00,,---,0.00,0.00,VWS V14.01,2013-01-19 01:47:00,
2013-01-18 17:52:00,39.1,26.4,30.37,WNW,284,0.0,2.0,60,0.00,,---,0.00,0.00,VWS V14.01,2013-01-19 01:52:00,
2013-01-18 17:57:00,38.9,26.2,30.37,WNW,284,0.0,2.0,60,0.00,,---,0.00,0.00,VWS V14.01,2013-01-19 01:57:00,
2013-01-18 18:02:00,38.6,25.9,30.37,WNW,284,1.0,2.0,60,0.00,,---,0.00,0.00,VWS V14.01,2013-01-19 02:02:00,
2013-01-18 18:07:00,38.3,26.0,30.37,WNW,284,1.0,2.0,61,0.00,,---,0.00,0.00,VWS V14.01,2013-01-19 02:07:00,
2013-01-18 18:12:00,38.0,26.1,30.37,WNW,284,1.0,2.0,62,0.00,,---,0.00,0.00,VWS V14.01,2013-01-19 02:12:00,
2013-01-18 18:17:00,37.7,25.9,30.37,WNW,284,1.0,2.0,62,0.00,,---,0.00,0.00,VWS V14.01,2013-01-19 02:17:00,
2013-01-18 18:22:00,37.5,25.3,30.37,WNW,284,0.0,2.0,61,0.00,,---,0.00,0.00,VWS V14.01,2013-01-19 02:22:00,
2013-01-18 18:27:00,37.7,25.1,30.37,WNW,284,0.0,2.0,60,0.00,,---,0.00,0.00,VWS V14.01,2013-01-19 02:27:00,
2013-01-18 18:32:00,37.8,24.8,30.37,WNW,292,2.0,2.0,59,0.00,,---,0.00,0.00,VWS V14.01,2013-01-19 02:32:00,
2013-01-18 18:37:00,38.0,25.0,30.37,WNW,296,0.0,2.0,59,0.00,,---,0.00,0.00,VWS V14.01,2013-01-19 02:37:00,
2013-01-18 18:42:00,38.0,25.0,30.37,NNW,338,0.0,2.0,59,0.00,,---,0.00,0.00,VWS V14.01,2013-01-19 02:42:00,
2013-01-18 18:47:00,38.0,24.5,30.37,NNW,338,0.0,2.0,58,0.00,,---,0.00,0.00,VWS V14.01,2013-01-19 02:47:00,
2013-01-18 18:52:00,38.0,24.5,30.37,NW,325,0.0,2.0,58,0.00,,---,0.00,0.00,VWS V14.01,2013-01-19 02:52:00,
2013-01-18 18:57:00,38.2,24.3,30.37,NW,325,0.0,2.0,57,0.00,,---,0.00,0.00,VWS V14.01,2013-01-19 02:57:00,
2013-01-18 19:02:00,38.2,23.9,30.37,NNE,16,1.0,2.0,56,0.00,,---,0.00,0.00,VWS V14.01,2013-01-19 03:02:00,
2013-01-18 19:07:00,38.0,23.7,30.37,North,355,1.0,3.0,56,0.00,,---,0.00,0.00,VWS V14.01,2013-01-19 03:07:00,
2013-01-18 19:12:00,38.2,23.0,30.37,NNE,13,2.0,5.0,54,0.00,,---,0.00,0.00,VWS V14.01,2013-01-19 03:12:00,
2013-01-18 19:17:00,39.2,22.6,30.37,North,355,5.0,5.0,51,0.00,,---,0.00,0.00,VWS V14.01,2013-01-19 03:17:00,
2013-01-18 19:22:00,40.4,21.8,30.37,North,5,2.0,6.0,47,0.00,,---,0.00,0.00,VWS V14.01,2013-01-19 03:22:00,
2013-01-18 19:27:00,41.6,20.8,30.37,North,5,3.0,8.0,43,0.00,,---,0.00,0.00,VWS V14.01,2013-01-19 03:27:00,
2013-01-18 19:32:00,42.4,21.0,30.37,North,11,1.0,6.0,42,0.00,,---,0.00,0.00,VWS V14.01,2013-01-19 03:32:00,
2013-01-18 19:37:00,42.9,21.4,30.37,NE,35,3.0,7.0,42,0.00,,---,0.00,0.00,VWS V14.01,2013-01-19 03:37:00,
2013-01-18 19:42:00,43.1,20.4,30.37,North,350,3.0,7.0,40,0.00,,---,0.00,0.00,VWS V14.01,2013-01-19 03:42:00,
2013-01-18 19:47:00,43.4,20.1,30.37,NNE,24,6.0,8.0,39,0.00,,---,0.00,0.00,VWS V14.01,2013-01-19 03:47:00,
2013-01-18 19:52:00,43.5,19.0,30.37,NNE,21,3.0,8.0,37,0.00,,---,0.00,0.00,VWS V14.01,2013-01-19 03:52:00,
2013-01-18 19:57:00,43.7,18.5,30.37,NNE,20,6.0,8.0,36,0.00,,---,0.00,0.00,VWS V14.01,2013-01-19 03:57:00,
2013-01-18 20:02:00,43.9,19.3,30.37,North,5,4.0,6.0,37,0.00,,---,0.00,0.00,VWS V14.01,2013-01-19 04:02:00,
2013-01-18 20:07:00,43.8,19.2,30.37,North,9,3.0,9.0,37,0.00,,---,0.00,0.00,VWS V14.01,2013-01-19 04:07:00,
2013-01-18 20:12:00,43.5,19.6,30.38,NE,49,4.0,9.0,38,0.00,,---,0.00,0.00,VWS V14.01,2013-01-19 04:12:00,
2013-01-18 20:17:00,43.3,20.0,30.37,North,5,6.0,9.0,39,0.00,,---,0.00,0.00,VWS V14.01,2013-01-19 04:17:00,
2013-01-18 20:22:00,43.1,19.8,30.38,NNE,17,4.0,9.0,39,0.00,,---,0.00,0.00,VWS V14.01,2013-01-19 04:22:00,
2013-01-18 20:27:00,42.9,20.3,30.38,NW,316,6.0,9.0,40,0.00,,---,0.00,0.00,VWS V14.01,2013-01-19 04:27:00,
2013-01-18 20:32:00,42.7,19.5,30.38,NNW,340,5.0,9.0,39,0.00,,---,0.00,0.00,VWS V14.01,2013-01-19 04:32:00,
2013-01-18 20:37:00,42.4,19.8,30.38,North,5,2.0,9.0,40,0.00,,---,0.00,0.00,VWS V14.01,2013-01-19 04:37:00,
2013-01-18 20:42:00,42.4,19.8,30.38,North,9,4.0,9.0,40,0.00,,---,0.00,0.00,VWS V14.01,2013-01-19 04:42:00,
2013-01-18 20:47:00,42.3,19.7,30.39,North,360,3.0,9.0,40,0.00,,---,0.00,0.00,VWS V14.01,2013-01-19 04:47:00,
2013-01-18 20:52:00,42.2,19.6,30.38,NNE,15,4.0,9.0,40,0.00,,---,0.00,0.00,VWS V14.01,2013-01-19 04:52:00,
2013-01-18 20:57:00,42.2,20.8,30.38,NW,325,4.0,9.0,42,0.00,,---,0.00,0.00,VWS V14.01,2013-01-19 04:57:00,
2013-01-18 21:00:00,41.9,20.5,30.38,NW,321,6.0,9.0,42,0.00,,---,0.00,0.00,VWS V14.01,2013-01-19 05:00:00,
2013-01-18 21:01:00,41.8,20.4,30.38,NNW,348,4.0,8.0,42,0.00,,---,0.00,0.00,VWS V14.01,2013-01-19 05:01:00,
2013-01-18 21:03:00,41.7,20.3,30.38,North,5,3.0,9.0,42,0.00,,---,0.00,0.00,VWS V14.01,2013-01-19 05:03:00,
2013-01-18 21:08:00,41.3,20.0,30.39,NNW,333,3.0,9.0,42,0.00,,---,0.00,0.00,VWS V14.01,2013-01-19 05:08:00,
2013-01-18 21:13:00,41.0,19.7,30.39,NNW,337,5.0,9.0,42,0.00,,---,0.00,0.00,VWS V14.01,2013-01-19 05:13:00,
2013-01-18 21:18:00,40.7,20.0,30.39,North,360,6.0,9.0,43,0.00,,---,0.00,0.00,VWS V14.01,2013-01-19 05:18:00,
2013-01-18 21:23:00,40.7,20.0,30.39,North,349,5.0,9.0,43,0.00,,---,0.00,0.00,VWS V14.01,2013-01-19 05:23:00,
2013-01-18 21:28:00,40.7,20.0,30.39,NNW,333,1.0,9.0,43,0.00,,---,0.00,0.00,VWS V14.01,2013-01-19 05:28:00,
2013-01-18 21:33:00,40.7,20.5,30.39,North,11,5.0,7.0,44,0.00,,---,0.00,0.00,VWS V14.01,2013-01-19 05:33:00,
2013-01-18 21:38:00,40.4,20.8,30.39,North,360,6.0,8.0,45,0.00,,---,0.00,0.00,VWS V14.01,2013-01-19 05:38:00,
2013-01-18 21:43:00,40.1,20.5,30.39,NNW,340,3.0,8.0,45,0.00,,---,0.00,0.00,VWS V14.01,2013-01-19 05:43:00,
2013-01-18 21:48:00,40.0,20.4,30.39,North,5,7.0,9.0,45,0.00,,---,0.00,0.00,VWS V14.01,2013-01-19 05:48:00,
2013-01-18 21:53:00,39.9,20.3,30.39,NW,324,3.0,11.0,45,0.00,,---,0.00,0.00,VWS V14.01,2013-01-19 05:53:00,
2013-01-18 21:58:00,39.7,20.6,30.39,WNW,295,5.0,13.0,46,0.00,,---,0.00,0.00,VWS V14.01,2013-01-19 05:58:00,
2013-01-18 22:03:00,39.4,20.4,30.39,North,5,4.0,11.0,46,0.00,,---,0.00,0.00,VWS V14.01,2013-01-19 06:03:00,
2013-01-18 22:08:00,39.2,20.2,30.39,NNW,334,8.0,12.0,46,0.00,,---,0.00,0.00,VWS V14.01,2013-01-19 06:08:00,
2013-01-18 22:13:00,38.9,20.4,30.39,North,360,11.0,12.0,47,0.00,,---,0.00,0.00,VWS V14.01,2013-01-19 06:13:00,
2013-01-18 22:18:00,38.7,20.2,30.39,North,355,5.0,12.0,47,0.00,,---,0.00,0.00,VWS V14.01,2013-01-19 06:18:00,
2013-01-18 22:23:00,38.3,20.8,30.39,North,355,5.0,12.0,49,0.00,,---,0.00,0.00,VWS V14.01,2013-01-19 06:23:00,
2013-01-18 22:28:00,38.0,20.5,30.39,North,360,4.0,12.0,49,0.00,,---,0.00,0.00,VWS V14.01,2013-01-19 06:28:00,
2013-01-18 22:33:00,37.9,20.5,30.39,North,349,3.0,8.0,49,0.00,,---,0.00,0.00,VWS V14.01,2013-01-19 06:33:00,
2013-01-18 22:38:00,37.6,20.7,30.39,North,360,9.0,11.0,50,0.00,,---,0.00,0.00,VWS V14.01,2013-01-19 06:38:00,
2013-01-18 22:43:00,37.6,20.7,30.39,NNE,19,7.0,11.0,50,0.00,,---,0.00,0.00,VWS V14.01,2013-01-19 06:43:00,
2013-01-18 22:48:00,37.6,20.7,30.39,WNW,292,4.0,14.0,50,0.00,,---,0.00,0.00,VWS V14.01,2013-01-19 06:48:00,
2013-01-18 22:53:00,37.8,20.4,30.39,NNW,338,5.0,14.0,49,0.00,,---,0.00,0.00,VWS V14.01,2013-01-19 06:53:00,
2013-01-18 22:58:00,37.9,20.5,30.39,NNE,16,8.0,14.0,49,0.00,,---,0.00,0.00,VWS V14.01,2013-01-19 06:58:00,
2013-01-18 23:03:00,38.0,20.5,30.39,NNE,20,6.0,16.0,49,0.00,,---,0.00,0.00,VWS V14.01,2013-01-19 07:03:00,
2013-01-18 23:08:00,38.1,20.2,30.39,NNE,20,12.0,16.0,48,0.00,,---,0.00,0.00,VWS V14.01,2013-01-19 07:08:00,
2013-01-18 23:13:00,38.0,20.1,30.39,North,351,7.0,16.0,48,0.00,,---,0.00,0.00,VWS V14.01,2013-01-19 07:13:00,
2013-01-18 23:18:00,37.9,20.5,30.39,NNE,28,8.0,16.0,49,0.00,,---,0.00,0.00,VWS V14.01,2013-01-19 07:18:00,
2013-01-18 23:23:00,38.0,20.1,30.39,NNE,15,6.0,17.0,48,0.00,,---,0.00,0.00,VWS V14.01,2013-01-19 07:23:00,
2013-01-18 23:28:00,38.0,20.1,30.39,NNE,13,5.0,17.0,48,0.00,,---,0.00,0.00,VWS V14.01,2013-01-19 07:28:00,
2013-01-18 23:33:00,38.1,20.2,30.38,NE,36,9.0,11.0,48,0.00,,---,0.00,0.00,VWS V14.01,2013-01-19 07:33:00,
2013-01-18 23:38:00,38.1,19.7,30.38,NNW,344,6.0,11.0,47,0.00,,---,0.00,0.00,VWS V14.01,2013-01-19 07:38:00,
2013-01-18 23:43:00,38.2,19.3,30.38,NE,49,7.0,11.0,46,0.00,,---,0.00,0.00,VWS V14.01,2013-01-19 07:43:00,
2013-01-18 23:48:00,38.4,19.4,30.38,North,5,5.0,13.0,46,0.00,,---,0.00,0.00,VWS V14.01,2013-01-19 07:48:00,
2013-01-18 23:53:00,38.5,19.5,30.38,NNW,345,4.0,13.0,46,0.00,,---,0.00,0.00,VWS V14.01,2013-01-19 07:53:00,
2013-01-18 23:58:00,38.6,19.1,30.38,North,10,4.0,13.0,45,0.00,,---,0.00,0.00,VWS V14.01,2013-01-19 07:58:00,